This demonstration page uses our WeatherBlox Daily Observations layout. Learn more.

Left ArrowRight Arrow

Hourly Observations for April 10, 2022

Temp ( °F °C ) Dew Point ( °F °C ) Humidity (%) Winds ( mph kmh ) Pressure ( in mb ) Visibility ( mi km ) Precip ( " mm )
12:53 am 00:53 Clear 55 12.8 14 -10 20 20 N 9 15 30.17 1022 10 16 0.00 0.00
1:53 am 01:53 Clear 54 12.2 15 -9.4 21 21 N 12 19 30.17 1022 10 16 0.00 0.00
2:53 am 02:53 Clear 54 12.2 15 -9.4 21 21 N 14 22 30.15 1021 10 16 0.00 0.00
3:53 am 03:53 Clear 51 10.6 17 -8.3 26 26 NNE 9 15 30.14 1021 10 16 0.00 0.00
4:53 am 04:53 Clear 51 10.6 18 -7.8 27 27 N 7 11 30.13 1020 10 16 0.00 0.00
5:53 am 05:53 Clear 51 10.6 19 -7.2 28 28 NNW 7 11 30.13 1020 10 16 0.00 0.00
6:53 am 06:53 Sunny 50 10 20 -6.7 30 30 NNW 5 7 30.11 1020 10 16 0.00 0.00
7:53 am 07:53 Sunny 53 11.7 22 -5.6 30 30 NNW 9 15 30.11 1020 10 16 0.00 0.00
8:53 am 08:53 Sunny 56 13.3 23 -5 28 28 NNW 16 26 30.07 1018 10 16 0.00 0.00
9:53 am 09:53 Sunny 59 15 24 -4.4 26 26 N 17 28 30.06 1018 10 16 0.00 0.00
10:53 am 10:53 Sunny 61 16.1 24 -4.4 24 24 NNW 15 24 30.03 1017 10 16 0.00 0.00
11:53 am 11:53 Sunny 63 17.2 25 -3.9 24 24 NNW 12 19 29.99 1016 10 16 0.00 0.00
12:53 pm 12:53 Sunny 65 18.3 25 -3.9 22 22 N 16 26 29.96 1014 10 16 0.00 0.00
1:53 pm 13:53 Sunny 68 20 25 -3.9 20 20 NNW 10 17 29.91 1013 10 16 0.00 0.00
2:53 pm 14:53 Sunny 70 21.1 27 -2.8 20 20 WNW 12 19 29.88 1012 10 16 0.00 0.00
3:53 pm 15:53 Sunny 70 21.1 26 -3.3 19 19 VRB 3 6 29.85 1011 10 16 0.00 0.00
4:53 pm 16:53 Sunny 71 21.7 26 -3.3 19 19 VRB 7 11 29.83 1010 10 16 0.00 0.00
5:53 pm 17:53 Sunny 70 21.1 27 -2.8 20 20 VRB 3 6 29.81 1009 10 16 0.00 0.00
6:53 pm 18:53 Sunny 66 18.9 30 -1.1 26 26 WNW 9 15 29.80 1009 10 16 0.00 0.00
7:53 pm 19:53 Clear 62 16.7 29 -1.7 29 29 W 13 20 29.80 1009 10 16 0.00 0.00
8:53 pm 20:53 Clear 59 15 30 -1.1 33 33 W 6 9 29.81 1010 10 16 0.00 0.00
9:53 pm 21:53 Mostly Clear 58 14.4 30 -1.1 35 35 W 5 7 29.80 1009 10 16 0.00 0.00
10:53 pm 22:53 Mostly Cloudy 53 11.7 31 -0.6 43 43 SE 8 13 29.79 1009 10 16 0.00 0.00
11:53 pm 23:53 Cloudy 56 13.3 31 -0.6 39 39 W 5 7 29.79 1009 10 16 0.00 0.00

Powered by AerisWeather